Location: Chervonnoye
(48.6000°N, 34.4000°E)
Time: 00:34:00
(UTC+00:00)

NOAA 15 - Pass Details

Date: 29 November 2021
Orbit: 797 x 812 km, 98.7° (Epoch: 17 January)

Event Time Altitude Azimuth Distance (km) Brightness Sun altitude
Rises 14:35:15 0° 107° (ESE) 3,326 7.3 -7.4°
Reaches altitude 10° 14:38:39 10° 84° (E) 2,397 6.5 -7.9°
Maximum altitude 14:41:23 14° 53° (NE) 2,100 6.2 -8.3°
Drops below altitude 10° 14:44:07 10° 22° (NNE) 2,399 6.7 -8.7°
Sets 14:47:31 0° 359° (N) 3,331 7.6 -9.2°
